[[{"header":{"parameterUnit":"m.s-1","parameterCategory":1,"la1":30.2991,"la2":30.254,"lo1":-89.0895,"lo2":-89.0444,"dy":0.0017,"dx":0.0017,"nx":28,"ny":28,"refTime":"2024-08-31T09:00:00:Z","depth":0,"parameterNumber":2,"parameterNumberName":"U-component_of_WINDS"},"data":[0,0,0,0,0,0,0,0,0,0,0,0,0,0,0,0,0,0,0,0,0,0,0,0,0,0,0,0,0,0,0,0,0,0,0,0,0,0,0,0,0,0,0,0,0,0,0,0,0,0,0,0,0,0,0,0,0,0,-2.4167,-2.4167,0,-2.4219,-2.422,-2.422,-2.4168,-2.4166,-2.4164,-2.4162,-2.4216,-2.4219,-2.4222,0,0,0,0,0,0,0,0,0,0,0,0,0,-2.4021,-2.4024,-2.4166,-2.4167,-2.4168,-2.4219,-2.422,-2.422,-2.4169,-2.4166,-2.4164,-2.4161,-2.4215,-2.4219,-2.4223,0,0,0,0,0,0,0,0,0,0,0,0,0,-2.408,-2.4025,-2.4166,-2.4148,-2.4147,-2.4219,-2.422,-2.4221,-2.4169,-2.4166,-2.4163,-2.416,-2.4213,-2.4218,-2.4223,-2.4315,0,0,-2.4238,-2.4241,0,0,0,0,0,0,0,0,-2.4077,-2.4086,-2.415,-2.415,-2.4148,-2.4184,-2.4188,-2.4252,-2.417,-2.4161,-2.4162,-2.4159,-2.4208,-2.4213,-2.4229,-2.4318,-2.432,-2.4239,-2.4242,-2.4244,-2.4245,0,0,0,0,0,0,0,-2.4073,-2.4083,-2.4187,-2.4151,-2.415,-2.4137,-2.4142,-2.42,-2.4201,-2.4161,-2.4158,-2.4165,-2.4207,-2.4225,-2.423,-2.4321,-2.4239,-2.4243,-2.4246,-2.4248,-2.4488,-2.4491,0,0,0,0,0,0,-2.4071,-2.408,-2.4186,-2.4189,-2.4104,-2.4142,-2.4148,-2.4176,-2.42,-2.4201,-2.4167,-2.4162,-2.4218,-2.4225,-2.4232,-2.4342,-2.4244,-2.4249,-2.4252,-2.4484,-2.4488,-2.4492,0,0,0,0,0,0,-2.4068,-2.4081,-2.4183,-2.4133,-2.4146,-2.4148,-2.418,-2.4178,-2.4196,-2.4204,-2.4204,-2.4186,-2.4216,-2.4225,-2.4295,-2.4343,-2.4251,-2.4255,-2.448,-2.4486,-2.449,-2.4561,0,0,0,0,0,0,-2.4064,-2.408,-2.4115,-2.4135,-2.4148,-2.4246,-2.4183,-2.4182,-2.4205,-2.4199,-2.4222,-2.4223,-2.4214,-2.4288,-2.43,-2.4348,-2.4259,-2.4476,-2.4483,-2.4489,-2.4555,-2.4568,-2.458,0,0,0,0,0,-2.4059,-2.4133,-2.4117,-2.413,-2.4192,-2.4249,-2.4256,-2.4245,-2.4209,-2.4245,-2.425,-2.4222,-2.4336,-2.4296,-2.4309,-2.4359,-2.4473,-2.4481,-2.4488,-2.4549,-2.4566,-2.4579,0,0,0,0,0,0,-2.4119,-2.4135,-2.4118,-2.42,-2.4224,-2.424,-2.4284,-2.4263,-2.4297,-2.4289,-2.4274,-2.4279,-2.4354,-2.4363,-2.4318,-2.4449,-2.4399,-2.4409,-2.444,-2.4456,-2.4468,-2.4464,-2.4263,0,0,0,0,0,-2.4141,-2.4186,-2.4198,-2.4269,-2.4282,-2.4281,-2.4305,-2.4295,-2.4318,-2.4327,-2.4338,-2.4361,-2.4402,-2.443,-2.4468,-2.4556,-2.456,-2.4597,-2.461,-2.462,-2.4629,-2.4677,-2.4693,-2.4517,-2.4517,-2.4517,0,0,-2.4189,-2.4203,-2.4232,-2.4282,-2.4298,-2.4345,-2.429,-2.4341,-2.4375,-2.4335,-2.4402,-2.4411,-2.4436,-2.4516,-2.4551,-2.4526,-2.4679,-2.463,-2.4638,-2.4641,-2.4686,-2.4703,-2.4718,-2.4522,-2.4521,-2.452,0,0,-2.4299,-2.4314,-2.4376,-2.4394,-2.442,-2.4419,-2.4434,-2.4454,-2.4458,-2.4525,-2.4496,-2.4536,-2.4607,-2.4627,-2.4646,-2.4764,-2.474,-2.4777,-2.4842,-2.4888,-2.4902,-2.4915,-2.4957,-2.4972,-2.4786,-2.4786,-2.4787,0,-2.4354,-2.4423,-2.441,-2.4464,-2.4486,-2.4452,-2.4514,-2.4533,-2.457,-2.4586,-2.4558,-2.4646,-2.4661,-2.4745,-2.4774,-2.4791,-2.4807,-2.4774,-2.4901,-2.4914,-2.4925,-2.4965,-2.4981,-2.4791,-2.479,-2.479,-2.4789,0,-2.449,-2.4538,-2.4585,-2.4622,-2.465,-2.4707,-2.4703,-2.4733,-2.472,-2.4722,-2.4791,-2.4808,-2.4849,-2.4868,-2.4856,-2.495,-2.4934,-2.4904,-2.4852,-2.4946,-2.4983,-2.4999,-2.4797,-2.4795,-2.4794,-2.4793,0,0,-2.4639,-2.4668,-2.4685,-2.4702,-2.4729,-2.4766,-2.4822,-2.4862,-2.4888,-2.4915,-2.4962,-2.5023,-2.4996,-2.5018,-2.5007,-2.5048,-2.5141,-2.5013,-2.5013,-2.5036,-2.5246,-2.5269,-2.5286,-2.5125,-2.5128,-2.513,-2.5244,0,-2.475,-2.4847,-2.4837,-2.493,-2.4974,-2.4943,-2.4992,-2.5014,-2.5017,-2.5056,-2.5059,-2.5103,-2.5064,-2.5077,-2.5116,-2.5121,-2.5183,-2.5113,-2.5168,-2.5171,-2.5163,-2.5306,-2.533,-2.5436,-2.5258,-2.5261,-2.5263,0,-2.4892,-2.4924,-2.5021,-2.5041,-2.506,-2.5104,-2.514,-2.5177,-2.5201,-2.5201,-2.5226,-2.5209,-2.5265,-2.5213,-2.5291,-2.5244,-2.5266,-2.5272,-2.5276,-2.5281,-2.5222,-2.5314,-2.547,-2.5486,-2.5286,-2.5284,-2.5282,0,-2.499,-2.5058,-2.5125,-2.514,-2.5165,-2.5197,-2.5209,-2.523,-2.5255,-2.5287,-2.5303,-2.5341,-2.5362,-2.5392,-2.5386,-2.5348,-2.5466,-2.5413,-2.5467,-2.5467,-2.5493,-2.5491,-2.5654,-2.5508,-2.5507,-2.5507,-2.5507,0,-2.5115,-2.5176,-2.517,-2.5211,-2.5278,-2.5266,-2.5333,-2.5341,-2.536,-2.5402,-2.5378,-2.5418,-2.5408,-2.5448,-2.5443,-2.5508,-2.5518,-2.552,-2.5518,-2.5522,-2.5522,-2.5536,-2.5528,-2.5511,-2.551,-2.551,-2.5509,0,-2.5236,-2.5235,-2.5306,-2.5324,-2.533,-2.5379,-2.5394,-2.5433,-2.5435,-2.5489,-2.5501,-2.5504,-2.5549,-2.5546,-2.5598,-2.5595,-2.5676,-2.5665,-2.5668,-2.5665,-2.572,-2.5715,-2.5897,-2.5921,-2.5759,-2.5761,-2.5762,0,-2.5316,-2.5362,-2.5385,-2.5412,-2.5426,-2.5469,-2.5494,-2.5484,-2.5512,-2.5543,-2.5578,-2.5622,-2.5656,-2.5731,-2.5738,-2.5777,-2.5767,-2.5829,-2.5773,-2.5776,-2.5768,-2.5766,-2.577,-2.584,-2.5841,-2.5843,-2.5844,0,-2.5458,-2.5455,-2.5492,-2.553,-2.5561,-2.559,-2.5617,-2.564,-2.5633,-2.5665,-2.5711,-2.5738,-2.5791,-2.5835,-2.5872,-2.5885,-2.5864,-2.5862,-2.5876,-2.5881,-2.588,-2.5881,-2.5697,-2.5857,-2.5856,-2.5855,-2.5854,-2.5854,-2.5561,-2.56,-2.5622,-2.5665,-2.5684,-2.571,-2.5747,-2.5754,-2.5792,-2.5834,-2.5826,-2.5879,-2.5902,-2.595,-2.5967,-2.6007,-2.5985,-2.6007,-2.6012,-2.6018,-2.6024,-2.5874,-2.6014,-2.6014,-2.6014,-2.6013,-2.6013,0,-2.5701,-2.5714,-2.5753,-2.5791,-2.5825,-2.5802,-2.583,-2.586,-2.5906,-2.593,-2.5964,-2.6018,-2.606,-2.6071,-2.6111,-2.6142,-2.6134,-2.6153,-2.6151,-2.6154,-2.6041,-2.6024,-2.616,-2.6159,-2.6159,-2.6159,-2.6159,-2.6159,-2.5778,-2.5843,-2.5843,-2.5918,-2.593,-2.5981,-2.6,-2.6023,-2.6042,-2.6103,-2.6138,-2.6144,-2.6163,-2.6204,-2.6242,-2.6244,-2.6261,-2.6284,-2.6282,-2.6177,-2.6162,-2.6148,-2.6132,-2.6288,-2.6288,-2.6392,-2.6393,-2.6394]},{"header":{"parameterUnit":"m.s-1","parameterCategory":1,"la1":30.2991,"la2":30.254,"lo1":-89.0895,"lo2":-89.0444,"dy":0.0017,"dx":0.0017,"nx":28,"ny":28,"refTime":"2024-08-31T09:00:00:Z","depth":0,"parameterNumber":3,"parameterNumberName":"V-component_of_WINDS"},"data":[0,0,0,0,0,0,0,0,0,0,0,0,0,0,0,0,0,0,0,0,0,0,0,0,0,0,0,0,0,0,0,0,0,0,0,0,0,0,0,0,0,0,0,0,0,0,0,0,0,0,0,0,0,0,0,0,0,0,1.2091,1.2091,0,1.2118,1.2118,1.2118,1.213,1.213,1.213,1.213,1.2155,1.2155,1.2156,0,0,0,0,0,0,0,0,0,0,0,0,0,1.2047,1.2047,1.2091,1.2091,1.2092,1.2118,1.2118,1.2119,1.213,1.213,1.213,1.213,1.2154,1.2155,1.2156,0,0,0,0,0,0,0,0,0,0,0,0,0,1.2069,1.2048,1.2091,1.21,1.2101,1.2118,1.2118,1.2119,1.213,1.213,1.213,1.213,1.2154,1.2155,1.2156,1.2164,0,0,1.216,1.216,0,0,0,0,0,0,0,0,1.2068,1.207,1.2099,1.21,1.2101,1.212,1.2112,1.2134,1.213,1.2119,1.213,1.2129,1.2143,1.2145,1.215,1.2165,1.2167,1.216,1.216,1.2161,1.2161,0,0,0,0,0,0,0,1.2066,1.2069,1.2101,1.2099,1.21,1.2103,1.2106,1.2116,1.2131,1.212,1.2121,1.2124,1.2144,1.2149,1.2151,1.2167,1.216,1.2161,1.2161,1.2162,1.219,1.219,0,0,0,0,0,0,1.2063,1.2068,1.2101,1.2102,1.2084,1.2103,1.2107,1.2114,1.2131,1.2134,1.2124,1.2124,1.2147,1.215,1.2152,1.2163,1.2161,1.2162,1.2162,1.219,1.219,1.219,0,0,0,0,0,0,1.2062,1.2066,1.21,1.2085,1.209,1.2104,1.2112,1.2115,1.212,1.2134,1.2137,1.2127,1.2147,1.215,1.2161,1.2164,1.2162,1.2163,1.219,1.219,1.219,1.2184,0,0,0,0,0,0,1.2061,1.2066,1.2069,1.2085,1.2091,1.2109,1.2113,1.2115,1.2122,1.2123,1.2138,1.214,1.2148,1.216,1.2162,1.2165,1.2164,1.219,1.219,1.219,1.2184,1.2184,1.2184,0,0,0,0,0,1.2059,1.2066,1.207,1.2073,1.2096,1.2109,1.2112,1.2122,1.2123,1.2126,1.2135,1.2139,1.2163,1.2161,1.2164,1.2167,1.219,1.219,1.219,1.2184,1.2184,1.2184,0,0,0,0,0,0,1.2049,1.2068,1.2072,1.2084,1.2095,1.2111,1.2116,1.2121,1.2131,1.2131,1.2142,1.2145,1.2155,1.2162,1.2159,1.2176,1.2177,1.2178,1.2171,1.2171,1.2171,1.2169,1.2165,0,0,0,0,0,1.2048,1.2058,1.2074,1.2083,1.2089,1.2101,1.2108,1.2114,1.2125,1.213,1.2139,1.215,1.2159,1.2165,1.2175,1.2185,1.2188,1.2189,1.2188,1.2188,1.2189,1.2195,1.2195,1.2191,1.2191,1.2191,0,0,1.2046,1.2058,1.2064,1.2081,1.2091,1.21,1.2105,1.2115,1.2122,1.2131,1.2142,1.215,1.2162,1.2172,1.2177,1.2178,1.2191,1.2189,1.2188,1.2189,1.2195,1.2195,1.2196,1.2191,1.2191,1.2191,0,0,1.2048,1.2058,1.2067,1.2076,1.209,1.2099,1.2101,1.2116,1.2122,1.2133,1.214,1.2148,1.2165,1.2173,1.218,1.2185,1.2189,1.2188,1.2187,1.2192,1.2193,1.2193,1.2195,1.2195,1.2188,1.2188,1.2188,0,1.2043,1.2059,1.207,1.208,1.2088,1.2097,1.2106,1.2114,1.213,1.2135,1.2136,1.2157,1.2166,1.2178,1.218,1.2185,1.2187,1.2186,1.2192,1.2192,1.2193,1.2195,1.2195,1.2188,1.2188,1.2188,1.2188,0,1.2053,1.2064,1.2069,1.2086,1.2094,1.2103,1.2115,1.2122,1.2128,1.2136,1.2147,1.2158,1.217,1.2174,1.2179,1.2187,1.2188,1.219,1.2191,1.2193,1.2195,1.2196,1.2188,1.2188,1.2188,1.2188,0,0,1.2048,1.2072,1.2073,1.2081,1.2098,1.2106,1.2115,1.2128,1.2134,1.2144,1.2152,1.2166,1.2169,1.2176,1.2183,1.2187,1.2191,1.2189,1.219,1.2189,1.2201,1.2199,1.2199,1.2194,1.2194,1.2194,1.22,0,1.2052,1.2071,1.2081,1.2095,1.2105,1.2114,1.2122,1.2133,1.2141,1.215,1.2158,1.2168,1.2171,1.2175,1.2181,1.2189,1.2193,1.2189,1.2201,1.2201,1.2198,1.22,1.2198,1.2202,1.22,1.2201,1.2201,0,1.2059,1.2071,1.2086,1.2102,1.2107,1.2114,1.2127,1.2135,1.2147,1.2153,1.2161,1.2168,1.2177,1.2178,1.2191,1.2188,1.2194,1.2199,1.2199,1.2201,1.2201,1.2202,1.2204,1.2205,1.2202,1.2202,1.2202,0,1.2055,1.2074,1.2086,1.2092,1.2111,1.2116,1.2123,1.2136,1.2143,1.2153,1.2158,1.217,1.2176,1.2184,1.2193,1.2193,1.2206,1.2207,1.221,1.221,1.2212,1.2212,1.2216,1.2216,1.2216,1.2216,1.2216,0,1.2058,1.2067,1.2084,1.2091,1.2101,1.2113,1.2122,1.2131,1.2141,1.215,1.2158,1.2166,1.2178,1.2186,1.2194,1.2203,1.2206,1.221,1.2212,1.221,1.2209,1.2213,1.2213,1.2216,1.2216,1.2216,1.2216,0,1.2054,1.2066,1.208,1.2097,1.2101,1.2108,1.2122,1.2128,1.2137,1.2148,1.2151,1.2164,1.2175,1.2185,1.2199,1.2204,1.2214,1.2216,1.221,1.2211,1.2213,1.2213,1.222,1.2221,1.222,1.222,1.222,0,1.2056,1.2063,1.2081,1.2088,1.2096,1.2106,1.2114,1.2125,1.2133,1.2147,1.2152,1.2164,1.2174,1.2191,1.2201,1.2212,1.2215,1.2216,1.2216,1.2214,1.2215,1.2214,1.2215,1.2216,1.2216,1.2216,1.2216,0,1.2057,1.2063,1.2074,1.2087,1.2096,1.2107,1.2118,1.2123,1.2136,1.2144,1.2156,1.2164,1.2179,1.219,1.2202,1.2209,1.2215,1.2216,1.2217,1.2215,1.2211,1.2213,1.221,1.2216,1.2216,1.2216,1.2216,1.2216,1.2056,1.2063,1.2077,1.2089,1.2098,1.2109,1.2116,1.2126,1.2136,1.215,1.2156,1.2168,1.218,1.2197,1.2204,1.2213,1.2214,1.2216,1.2216,1.2217,1.2216,1.2209,1.2215,1.2215,1.2215,1.2215,1.2215,0,1.2057,1.2067,1.2078,1.2094,1.2103,1.2108,1.2121,1.2128,1.2139,1.215,1.216,1.2173,1.2184,1.2196,1.2207,1.2212,1.2215,1.2215,1.2215,1.2216,1.2214,1.2212,1.2213,1.2213,1.2213,1.2213,1.2213,1.2213,1.2059,1.2072,1.2079,1.2096,1.2105,1.2117,1.2124,1.2133,1.2142,1.2157,1.2167,1.2175,1.2186,1.2198,1.2209,1.2212,1.2215,1.2215,1.2218,1.2216,1.2216,1.2216,1.2214,1.2215,1.2215,1.2219,1.2219,1.2219]}]]